| time (UTC) | temp C | wind direction | speed KPH | gust KPH | rain 1hr cm | rain 24hr cm | rain mn cm | humidity % | barometer mb |
| 20260504082003 | 5 | 0 | 0.0 | 0.0 | 0.00 | 0.00 | 0.00 | 75 | 1020.8 |
| 20260504081504 | 5 | 0 | 0.0 | 0.0 | 0.00 | 0.00 | 0.00 | 73 | 1021.1 |
| 20260504081003 | 5 | 0 | 0.0 | 0.0 | 0.00 | 0.00 | 0.00 | 73 | 1021.0 |
| 20260504080524 | 5 | 0 | 0.0 | 0.0 | 0.00 | 0.00 | 0.00 | 72 | 1021.0 |
| 20260504050503 | 6 | 0 | 0.0 | 0.0 | 0.00 | 0.00 | 0.00 | 69 | 1021.6 |
| 20260504045504 | 6 | 0 | 0.0 | 0.0 | 0.00 | 0.00 | 0.00 | 69 | 1021.7 |
| 20260504045024 | 6 | 302 | 0.0 | 1.6 | 0.00 | 0.00 | 0.00 | 69 | 1022.0 |
| 20260504044503 | 6 | 302 | 0.0 | 1.6 | 0.00 | 0.00 | 0.00 | 69 | 1021.7 |
| 20260504044025 | 6 | 0 | 0.0 | 0.0 | 0.00 | 0.00 | 0.00 | 69 | 1021.6 |
| 20260504043524 | 6 | 293 | 0.0 | 1.6 | 0.00 | 0.00 | 0.00 | 68 | 1021.8 |
| 20260504043003 | 6 | 293 | 0.0 | 1.6 | 0.00 | 0.00 | 0.00 | 69 | 1022.0 |
| 20260504042504 | 6 | 293 | 0.0 | 1.6 | 0.00 | 0.00 | 0.00 | 69 | 1022.2 |
| 20260504042003 | 6 | 0 | 0.0 | 0.0 | 0.00 | 0.00 | 0.00 | 69 | 1022.1 |
| 20260504041503 | 6 | 0 | 0.0 | 0.0 | 0.00 | 0.00 | 0.00 | 68 | 1022.3 |
| 20260504041004 | 6 | 0 | 0.0 | 0.0 | 0.00 | 0.00 | 0.00 | 68 | 1022.4 |
| 20260504040503 | 6 | 0 | 0.0 | 0.0 | 0.00 | 0.00 | 0.00 | 68 | 1022.4 |
| 20260504040024 | 6 | 0 | 0.0 | 0.0 | 0.00 | 0.00 | 0.00 | 68 | 1022.2 |
| 20260504035524 | 6 | 0 | 0.0 | 0.0 | 0.00 | 0.00 | 0.00 | 68 | 1022.2 |
| 20260504035003 | 5 | 0 | 0.0 | 0.0 | 0.00 | 0.00 | 0.00 | 67 | 1022.3 |
| 20260504034504 | 5 | 0 | 0.0 | 0.0 | 0.00 | 0.00 | 0.00 | 67 | 1022.1 |
| 20260504034003 | 5 | 0 | 0.0 | 0.0 | 0.00 | 0.00 | 0.00 | 67 | 1022.2 |
| 20260504033503 | 5 | 0 | 0.0 | 0.0 | 0.00 | 0.00 | 0.00 | 67 | 1022.0 |
| 20260504033003 | 5 | 0 | 0.0 | 0.0 | 0.00 | 0.00 | 0.00 | 66 | 1021.8 |
| 20260504032524 | 5 | 0 | 0.0 | 0.0 | 0.00 | 0.00 | 0.00 | 66 | 1021.7 |
| 20260504032003 | 5 | 0 | 0.0 | 0.0 | 0.00 | 0.00 | 0.00 | 65 | 1021.8 |
| 20260504031524 | 5 | 0 | 0.0 | 0.0 | 0.00 | 0.00 | 0.00 | 65 | 1021.7 |
| 20260504031003 | 5 | 0 | 0.0 | 0.0 | 0.00 | 0.00 | 0.00 | 64 | 1021.7 |
| 20260504030524 | 5 | 0 | 0.0 | 0.0 | 0.00 | 0.00 | 0.00 | 63 | 1021.8 |
| 20260504030024 | 5 | 0 | 0.0 | 0.0 | 0.00 | 0.00 | 0.00 | 63 | 1021.6 |
| 20260504025503 | 5 | 0 | 0.0 | 0.0 | 0.00 | 0.00 | 0.00 | 62 | 1021.7 |
| 20260504025003 | 5 | 0 | 0.0 | 0.0 | 0.00 | 0.00 | 0.00 | 61 | 1021.6 |
| 20260504024504 | 5 | 281 | 0.0 | 1.6 | 0.00 | 0.00 | 0.00 | 61 | 1021.4 |
| 20260504024024 | 6 | 281 | 0.0 | 1.6 | 0.00 | 0.00 | 0.00 | 59 | 1021.6 |
| 20260504023503 | 6 | 281 | 0.0 | 1.6 | 0.00 | 0.00 | 0.00 | 59 | 1021.4 |
| 20260504023003 | 6 | 0 | 0.0 | 0.0 | 0.00 | 0.00 | 0.00 | 59 | 1021.7 |
| 20260504022503 | 6 | 0 | 0.0 | 0.0 | 0.00 | 0.00 | 0.00 | 59 | 1021.8 |
| 20260504022003 | 6 | 281 | 0.0 | 1.6 | 0.00 | 0.00 | 0.00 | 59 | 1021.8 |
| 20260504021526 | 6 | 281 | 0.0 | 1.6 | 0.00 | 0.00 | 0.00 | 58 | 1021.7 |
| 20260504021003 | 6 | 281 | 0.0 | 1.6 | 0.00 | 0.00 | 0.00 | 57 | 1021.8 |
| 20260504020524 | 6 | 281 | 0.0 | 1.6 | 0.00 | 0.00 | 0.00 | 57 | 1021.7 |
| 20260504020006 | 6 | 281 | 1.6 | 3.2 | 0.00 | 0.00 | 0.00 | 55 | 1021.5 |
| 20260504015504 | 6 | 281 | 1.6 | 3.2 | 0.00 | 0.00 | 0.00 | 55 | 1021.7 |
| 20260504015024 | 6 | 281 | 1.6 | 3.2 | 0.00 | 0.00 | 0.00 | 54 | 1021.8 |
| 20260504014504 | 7 | 281 | 1.6 | 3.2 | 0.00 | 0.00 | 0.00 | 53 | 1021.7 |
| 20260504014003 | 7 | 280 | 0.0 | 3.2 | 0.00 | 0.00 | 0.00 | 53 | 1021.6 |
| 20260504013504 | 7 | 280 | 0.0 | 3.2 | 0.00 | 0.00 | 0.00 | 54 | 1021.6 |
| 20260504013003 | 7 | 280 | 0.0 | 3.2 | 0.00 | 0.00 | 0.00 | 52 | 1021.6 |
| 20260504012503 | 7 | 280 | 0.0 | 3.2 | 0.00 | 0.00 | 0.00 | 52 | 1021.7 |
| 20260504012003 | 7 | 280 | 0.0 | 1.6 | 0.00 | 0.00 | 0.00 | 51 | 1021.8 |
| 20260504011504 | 7 | 280 | 0.0 | 1.6 | 0.00 | 0.00 | 0.00 | 50 | 1021.6 |
| 20260504011003 | 7 | 279 | 0.0 | 1.6 | 0.00 | 0.00 | 0.00 | 50 | 1021.6 |
| 20260504010503 | 8 | 276 | 0.0 | 1.6 | 0.00 | 0.00 | 0.00 | 49 | 1021.4 |
| 20260504010003 | 8 | 292 | 0.0 | 4.8 | 0.00 | 0.00 | 0.00 | 48 | 1021.5 |
| 20260504005504 | 8 | 296 | 0.0 | 4.8 | 0.00 | 0.00 | 0.00 | 48 | 1021.4 |
| 20260504005003 | 8 | 0 | 0.0 | 0.0 | 0.00 | 0.00 | 0.00 | 47 | 1021.4 |
| 20260504004524 | 9 | 284 | 0.0 | 1.6 | 0.00 | 0.00 | 0.00 | 46 | 1021.2 |
| 20260504004003 | 9 | 284 | 0.0 | 1.6 | 0.00 | 0.00 | 0.00 | 45 | 1021.2 |
| 20260504003504 | 9 | 0 | 0.0 | 0.0 | 0.00 | 0.00 | 0.00 | 44 | 1021.0 |
| 20260504003004 | 10 | 0 | 0.0 | 0.0 | 0.00 | 0.00 | 0.00 | 43 | 1021.1 |
| 20260504002525 | 10 | 285 | 0.0 | 1.6 | 0.00 | 0.00 | 0.00 | 42 | 1021.1 |
| 20260504002004 | 10 | 263 | 0.0 | 3.2 | 0.00 | 0.00 | 0.00 | 42 | 1021.0 |
| 20260504001503 | 10 | 260 | 0.0 | 3.2 | 0.00 | 0.00 | 0.00 | 42 | 1021.0 |
| 20260504001003 | 10 | 246 | 1.6 | 9.7 | 0.00 | 0.00 | 0.00 | 41 | 1021.1 |
| 20260504000503 | 10 | 258 | 1.6 | 9.7 | 0.00 | 0.00 | 0.00 | 40 | 1020.7 |
| 20260504000003 | 11 | 268 | 1.6 | 6.4 | 0.00 | 0.00 | 0.00 | 40 | 1020.7 |
| 20260503235503 | 11 | 271 | 1.6 | 9.7 | 0.00 | 0.00 | 0.00 | 39 | 1020.7 |
| 20260503235004 | 11 | 270 | 1.6 | 9.7 | 0.00 | 0.00 | 0.00 | 39 | 1020.5 |
| 20260503234503 | 11 | 248 | 1.6 | 6.4 | 0.00 | 0.00 | 0.00 | 39 | 1020.5 |
| 20260503234025 | 11 | 255 | 3.2 | 16.1 | 0.00 | 0.00 | 0.00 | 38 | 1020.6 |
| 20260503233503 | 11 | 273 | 4.8 | 25.7 | 0.00 | 0.00 | 0.00 | 37 | 1020.2 |
| 20260503233024 | 11 | 276 | 4.8 | 25.7 | 0.00 | 0.00 | 0.00 | 37 | 1020.3 |
| 20260503232503 | 12 | 259 | 1.6 | 9.7 | 0.00 | 0.00 | 0.00 | 37 | 1020.3 |
| 20260503232005 | 12 | 265 | 3.2 | 16.1 | 0.00 | 0.00 | 0.00 | 37 | 1020.1 |
| 20260503231524 | 12 | 272 | 6.4 | 27.4 | 0.00 | 0.00 | 0.00 | 36 | 1020.4 |
| 20260503231003 | 12 | 275 | 6.4 | 27.4 | 0.00 | 0.00 | 0.00 | 37 | 1019.9 |
| 20260503230003 | 12 | 265 | 8.0 | 25.7 | 0.00 | 0.00 | 0.00 | 34 | 1020.1 |
| 20260503225503 | 12 | 264 | 6.4 | 25.7 | 0.00 | 0.00 | 0.00 | 33 | 1019.8 |
| 20260503225024 | 13 | 273 | 4.8 | 16.1 | 0.00 | 0.00 | 0.00 | 33 | 1019.9 |
| 20260503224503 | 13 | 287 | 4.8 | 14.5 | 0.00 | 0.00 | 0.00 | 32 | 1019.7 |
| 20260503224004 | 13 | 292 | 4.8 | 16.1 | 0.00 | 0.00 | 0.00 | 33 | 1019.7 |
| 20260503223504 | 13 | 286 | 6.4 | 24.1 | 0.00 | 0.00 | 0.00 | 31 | 1019.5 |
| 20260503223003 | 13 | 282 | 4.8 | 24.1 | 0.00 | 0.00 | 0.00 | 31 | 1019.7 |
| 20260503222504 | 13 | 277 | 3.2 | 17.7 | 0.00 | 0.00 | 0.00 | 33 | 1019.6 |
| 20260503222003 | 13 | 274 | 3.2 | 17.7 | 0.00 | 0.00 | 0.00 | 32 | 1019.5 |
| 20260503221504 | 13 | 275 | 4.8 | 17.7 | 0.00 | 0.00 | 0.00 | 33 | 1019.5 |
| 20260503221004 | 13 | 281 | 4.8 | 29.0 | 0.00 | 0.00 | 0.00 | 31 | 1019.8 |
| 20260503220504 | 13 | 271 | 4.8 | 29.0 | 0.00 | 0.00 | 0.00 | 30 | 1019.4 |
| 20260503220003 | 13 | 251 | 3.2 | 16.1 | 0.00 | 0.00 | 0.00 | 33 | 1019.5 |
| 20260503215504 | 13 | 271 | 4.8 | 16.1 | 0.00 | 0.00 | 0.00 | 31 | 1019.6 |
| 20260503214503 | 13 | 266 | 4.8 | 22.5 | 0.00 | 0.00 | 0.00 | 31 | 1019.4 |
| 20260503214004 | 13 | 254 | 3.2 | 16.1 | 0.00 | 0.00 | 0.00 | 30 | 1019.7 |
| 20260503213503 | 14 | 257 | 3.2 | 16.1 | 0.00 | 0.00 | 0.00 | 33 | 1019.9 |
| 20260503213003 | 14 | 261 | 3.2 | 11.3 | 0.00 | 0.00 | 0.00 | 33 | 1019.8 |
| 20260503212504 | 14 | 243 | 3.2 | 22.5 | 0.00 | 0.00 | 0.00 | 32 | 1019.8 |
| 20260503212025 | 14 | 241 | 4.8 | 22.5 | 0.00 | 0.00 | 0.00 | 32 | 1019.8 |
| 20260503211504 | 14 | 267 | 6.4 | 24.1 | 0.00 | 0.00 | 0.00 | 33 | 1019.6 |
| 20260503211003 | 14 | 272 | 3.2 | 20.9 | 0.00 | 0.00 | 0.00 | 32 | 1019.5 |
| 20260503210524 | 14 | 240 | 3.2 | 20.9 | 0.00 | 0.00 | 0.00 | 32 | 1019.7 |
| 20260503210003 | 13 | 266 | 6.4 | 24.1 | 0.00 | 0.00 | 0.00 | 34 | 1019.8 |
| 20260503205504 | 13 | 294 | 8.0 | 24.1 | 0.00 | 0.00 | 0.00 | 33 | 1019.8 |
| 20260503205011 | 13 | 292 | 6.4 | 22.5 | 0.00 | 0.00 | 0.00 | 34 | 1019.6 |
| 20260503204503 | 13 | 269 | 6.4 | 22.5 | 0.00 | 0.00 | 0.00 | 33 | 1019.8 |
| 20260503204003 | 13 | 277 | 6.4 | 22.5 | 0.00 | 0.00 | 0.00 | 35 | 1019.8 |
| 20260503203503 | 13 | 277 | 4.8 | 14.5 | 0.00 | 0.00 | 0.00 | 31 | 1019.9 |
| 20260503203003 | 13 | 266 | 4.8 | 16.1 | 0.00 | 0.00 | 0.00 | 35 | 1019.7 |
| 20260503202503 | 13 | 275 | 4.8 | 16.1 | 0.00 | 0.00 | 0.00 | 33 | 1020.0 |
| 20260503202003 | 13 | 293 | 6.4 | 20.9 | 0.00 | 0.00 | 0.00 | 36 | 1020.0 |
| 20260503201503 | 13 | 280 | 4.8 | 20.9 | 0.00 | 0.00 | 0.00 | 33 | 1020.2 |
| 20260503201003 | 13 | 268 | 4.8 | 16.1 | 0.00 | 0.00 | 0.00 | 35 | 1019.8 |
| 20260503200503 | 13 | 277 | 3.2 | 16.1 | 0.00 | 0.00 | 0.00 | 35 | 1020.2 |
| 20260503200003 | 13 | 276 | 4.8 | 17.7 | 0.00 | 0.00 | 0.00 | 37 | 1020.1 |
| 20260503195503 | 13 | 279 | 6.4 | 17.7 | 0.00 | 0.00 | 0.00 | 34 | 1020.2 |
| 20260503195003 | 13 | 275 | 6.4 | 20.9 | 0.00 | 0.00 | 0.00 | 35 | 1020.3 |
| 20260503194504 | 13 | 267 | 6.4 | 20.9 | 0.00 | 0.00 | 0.00 | 35 | 1020.3 |
| 20260503194004 | 12 | 274 | 8.0 | 25.7 | 0.00 | 0.00 | 0.00 | 39 | 1020.3 |
| 20260503193503 | 12 | 288 | 6.4 | 25.7 | 0.00 | 0.00 | 0.00 | 37 | 1020.5 |
| 20260503193003 | 12 | 288 | 8.0 | 24.1 | 0.00 | 0.00 | 0.00 | 36 | 1020.5 |
| 20260503192504 | 12 | 277 | 8.0 | 24.1 | 0.00 | 0.00 | 0.00 | 36 | 1020.7 |
| 20260503192004 | 12 | 280 | 8.0 | 17.7 | 0.00 | 0.00 | 0.00 | 38 | 1020.7 |
| 20260503191524 | 12 | 287 | 6.4 | 17.7 | 0.00 | 0.00 | 0.00 | 37 | 1020.7 |
| 20260503191024 | 12 | 296 | 3.2 | 14.5 | 0.00 | 0.00 | 0.00 | 38 | 1020.9 |
| 20260503190503 | 12 | 289 | 8.0 | 17.7 | 0.00 | 0.00 | 0.00 | 36 | 1020.8 |
| 20260503190004 | 12 | 284 | 9.7 | 30.6 | 0.00 | 0.00 | 0.00 | 36 | 1021.2 |
| 20260503185503 | 12 | 283 | 11.3 | 30.6 | 0.00 | 0.00 | 0.00 | 37 | 1021.0 |
| 20260503185003 | 12 | 290 | 8.0 | 25.7 | 0.00 | 0.00 | 0.00 | 37 | 1020.9 |
| 20260503184504 | 12 | 280 | 4.8 | 17.7 | 0.00 | 0.00 | 0.00 | 38 | 1021.1 |
| 20260503184003 | 11 | 272 | 6.4 | 24.1 | 0.00 | 0.00 | 0.00 | 39 | 1021.1 |
| 20260503183504 | 11 | 281 | 9.7 | 29.0 | 0.00 | 0.00 | 0.00 | 40 | 1021.2 |
| 20260503183024 | 11 | 283 | 9.7 | 29.0 | 0.00 | 0.00 | 0.00 | 36 | 1021.1 |
| 20260503182505 | 12 | 263 | 6.4 | 27.4 | 0.00 | 0.00 | 0.00 | 38 | 1021.1 |
| 20260503182005 | 12 | 271 | 4.8 | 17.7 | 0.00 | 0.00 | 0.00 | 39 | 1021.0 |
| 20260503181504 | 11 | 289 | 6.4 | 22.5 | 0.00 | 0.00 | 0.00 | 41 | 1021.3 |
| 20260503181003 | 11 | 281 | 9.7 | 25.7 | 0.00 | 0.00 | 0.00 | 38 | 1021.2 |
| 20260503180525 | 11 | 281 | 8.0 | 25.7 | 0.00 | 0.00 | 0.00 | 39 | 1021.4 |
| 20260503180003 | 11 | 281 | 6.4 | 20.9 | 0.00 | 0.00 | 0.00 | 39 | 1021.4 |
| 20260503175504 | 11 | 287 | 6.4 | 17.7 | 0.00 | 0.00 | 0.00 | 36 | 1021.3 |
| 20260503175004 | 11 | 288 | 6.4 | 17.7 | 0.00 | 0.00 | 0.00 | 39 | 1021.3 |
| 20260503174504 | 11 | 277 | 6.4 | 17.7 | 0.00 | 0.00 | 0.00 | 41 | 1021.4 |
| 20260503174004 | 10 | 284 | 4.8 | 16.1 | 0.00 | 0.00 | 0.00 | 43 | 1021.5 |
| 20260503173524 | 10 | 295 | 4.8 | 17.7 | 0.00 | 0.00 | 0.00 | 42 | 1021.6 |
| 20260503173003 | 10 | 293 | 6.4 | 22.5 | 0.00 | 0.00 | 0.00 | 39 | 1021.8 |
| 20260503172504 | 10 | 300 | 8.0 | 24.1 | 0.00 | 0.00 | 0.00 | 40 | 1021.7 |
| 20260503172003 | 10 | 293 | 6.4 | 24.1 | 0.00 | 0.00 | 0.00 | 36 | 1021.7 |
| 20260503171524 | 10 | 283 | 4.8 | 14.5 | 0.00 | 0.00 | 0.00 | 39 | 1021.5 |
| 20260503171003 | 10 | 284 | 1.6 | 14.5 | 0.00 | 0.00 | 0.00 | 41 | 1021.5 |
| 20260503170503 | 10 | 289 | 3.2 | 24.1 | 0.00 | 0.00 | 0.00 | 41 | 1021.6 |
| 20260503151003 | 9 | 289 | 8.0 | 27.4 | 0.00 | 0.00 | 0.00 | 43 | 1022.0 |
| 20260503150504 | 9 | 285 | 8.0 | 27.4 | 0.00 | 0.00 | 0.00 | 41 | 1021.7 |
| 20260503131004 | 7 | 283 | 4.8 | 16.1 | 0.00 | 0.00 | 0.00 | 64 | 1022.8 |
| 20260503130504 | 7 | 275 | 3.2 | 16.1 | 0.00 | 0.00 | 0.00 | 66 | 1022.7 |
| 20260503110503 | 4 | 296 | 3.2 | 12.9 | 0.00 | 0.00 | 0.00 | 74 | 1022.2 |